Location: G�ppingen
(48.7089°N, 9.6563°E)
Time: 18:28:11
(UTC+01:00)

ISS - Pass Details

Date: 13 November 2017
Orbit: 402 x 407 km, 51.6° (Epoch: 20 November)

Event Time Altitude Azimuth Distance (km) Brightness Sun altitude
Exits shadow 05:02:43 38° 78° (ENE) 626 -2.4 -23.7°
Drops below altitude 10° 05:04:57 10° 96° (E) 1,455 0.1 -23.4°
Sets 05:07:03 0° 100° (E) 2,313 1.4 -23.0°
